Time,TemperatureF,DewpointF,PressureIn,WindDirection,WindDirectionDegrees,WindSpeedMPH,WindSpeedGustMPH,Humidity,HourlyPrecipIn,Conditions,Clouds,dailyrainin,SoftwareType,DateUTC
2013-07-14 00:01:00,72.1,67.7,30.16,East,90,1.0,1.0,86,0.00,,,0.00,Wunderground v.1.15,2013-07-14 04:01:00,
2013-07-14 00:02:00,72.1,67.7,30.16,NNW,338,1.0,5.0,86,0.00,,,0.00,Wunderground v.1.15,2013-07-14 04:02:00,
2013-07-14 00:03:00,72.1,67.7,30.16,SE,127,1.0,5.0,86,0.00,,,0.00,Wunderground v.1.15,2013-07-14 04:03:00,
2013-07-14 00:04:00,72.1,67.7,30.15,East,84,1.0,5.0,86,0.00,,,0.00,Wunderground v.1.15,2013-07-14 04:04:00,
2013-07-14 00:05:00,72.1,67.7,30.15,SE,143,1.0,5.0,86,0.00,,,0.00,Wunderground v.1.15,2013-07-14 04:05:00,
2013-07-14 00:11:00,72.0,67.6,30.15,East,82,2.0,5.0,86,0.00,,,0.00,Wunderground v.1.15,2013-07-14 04:11:00,
2013-07-14 00:17:00,71.8,67.7,30.15,North,349,2.0,5.0,87,0.00,,,0.00,Wunderground v.1.15,2013-07-14 04:17:00,
2013-07-14 00:23:00,71.9,67.8,30.15,East,101,2.0,5.0,87,0.00,,,0.00,Wunderground v.1.15,2013-07-14 04:23:00,
2013-07-14 00:28:00,71.8,67.7,30.15,SE,126,2.0,5.0,87,0.00,,,0.00,Wunderground v.1.15,2013-07-14 04:28:00,
2013-07-14 00:34:00,71.6,67.5,30.15,SE,127,1.0,5.0,87,0.00,,,0.00,Wunderground v.1.15,2013-07-14 04:34:00,
2013-07-14 00:40:00,71.4,67.3,30.15,ENE,72,2.0,5.0,87,0.00,,,0.00,Wunderground v.1.15,2013-07-14 04:40:00,
2013-07-14 00:46:00,71.4,67.3,30.15,SE,129,2.0,5.0,87,0.00,,,0.00,Wunderground v.1.15,2013-07-14 04:46:00,
2013-07-14 00:52:00,71.4,67.3,30.15,NE,44,2.0,5.0,87,0.00,,,0.00,Wunderground v.1.15,2013-07-14 04:52:00,
2013-07-14 00:58:00,71.3,67.2,30.15,East,79,2.0,5.0,87,0.00,,,0.00,Wunderground v.1.15,2013-07-14 04:58:00,
2013-07-14 01:03:00,71.1,67.4,30.15,SE,135,2.0,5.0,88,0.00,,,0.00,Wunderground v.1.15,2013-07-14 05:03:00,
2013-07-14 01:09:00,70.8,67.1,30.15,SE,142,1.0,5.0,88,0.00,,,0.00,Wunderground v.1.15,2013-07-14 05:09:00,
2013-07-14 01:15:00,70.7,67.3,30.15,NE,38,1.0,5.0,89,0.00,,,0.00,Wunderground v.1.15,2013-07-14 05:15:00,
2013-07-14 01:21:00,70.6,67.2,30.15,ENE,77,1.0,5.0,89,0.00,,,0.00,Wunderground v.1.15,2013-07-14 05:21:00,
2013-07-14 01:27:00,70.4,67.0,30.15,SE,139,1.0,5.0,89,0.00,,,0.00,Wunderground v.1.15,2013-07-14 05:27:00,
2013-07-14 01:33:00,70.2,67.1,30.15,SE,127,1.0,5.0,90,0.00,,,0.00,Wunderground v.1.15,2013-07-14 05:33:00,
2013-07-14 01:39:00,70.0,66.9,30.15,NE,44,1.0,5.0,90,0.00,,,0.00,Wunderground v.1.15,2013-07-14 05:39:00,
2013-07-14 01:44:00,69.9,66.8,30.15,SSE,155,1.0,5.0,90,0.00,,,0.00,Wunderground v.1.15,2013-07-14 05:44:00,
2013-07-14 01:50:00,69.9,66.8,30.15,SE,124,1.0,5.0,90,0.00,,,0.00,Wunderground v.1.15,2013-07-14 05:50:00,
2013-07-14 01:56:00,69.9,66.8,30.16,NE,44,1.0,5.0,90,0.00,,,0.00,Wunderground v.1.15,2013-07-14 05:56:00,
2013-07-14 02:01:00,69.8,66.7,30.15,North,7,1.0,1.0,90,0.00,,,0.00,Wunderground v.1.15,2013-07-14 06:01:00,
2013-07-14 02:07:00,69.6,66.5,30.15,ESE,117,1.0,5.0,90,0.00,,,0.00,Wunderground v.1.15,2013-07-14 06:07:00,
2013-07-14 02:13:00,69.5,66.8,30.15,ESE,113,1.0,5.0,91,0.00,,,0.00,Wunderground v.1.15,2013-07-14 06:13:00,
2013-07-14 02:18:00,69.3,66.6,30.15,NE,39,1.0,5.0,91,0.00,,,0.00,Wunderground v.1.15,2013-07-14 06:18:00,
2013-07-14 02:24:00,69.1,66.7,30.15,NE,48,1.0,5.0,92,0.00,,,0.00,Wunderground v.1.15,2013-07-14 06:24:00,
2013-07-14 02:30:00,69.0,66.6,30.15,NE,38,1.0,5.0,92,0.00,,,0.00,Wunderground v.1.15,2013-07-14 06:30:00,
2013-07-14 02:36:00,69.2,66.8,30.15,NE,43,3.0,5.0,92,0.00,,,0.00,Wunderground v.1.15,2013-07-14 06:36:00,
2013-07-14 02:42:00,69.3,66.9,30.15,NE,55,3.0,5.0,92,0.00,,,0.00,Wunderground v.1.15,2013-07-14 06:42:00,
2013-07-14 02:48:00,69.2,66.8,30.15,NE,37,3.0,5.0,92,0.00,,,0.00,Wunderground v.1.15,2013-07-14 06:48:00,
2013-07-14 02:54:00,69.0,66.9,30.14,NE,46,3.0,5.0,93,0.00,,,0.00,Wunderground v.1.15,2013-07-14 06:54:00,
2013-07-14 02:59:00,68.9,66.8,30.14,SE,128,3.0,5.0,93,0.00,,,0.00,Wunderground v.1.15,2013-07-14 06:59:00,
2013-07-14 03:05:00,68.8,66.7,30.14,ESE,115,1.0,5.0,93,0.00,,,0.00,Wunderground v.1.15,2013-07-14 07:05:00,
2013-07-14 03:11:00,68.8,66.7,30.14,East,92,2.0,5.0,93,0.00,,,0.00,Wunderground v.1.15,2013-07-14 07:11:00,
2013-07-14 03:17:00,68.8,66.7,30.14,East,98,2.0,5.0,93,0.00,,,0.00,Wunderground v.1.15,2013-07-14 07:17:00,
2013-07-14 03:23:00,68.7,66.6,30.14,SSE,152,2.0,5.0,93,0.00,,,0.00,Wunderground v.1.15,2013-07-14 07:23:00,
2013-07-14 03:29:00,68.5,66.4,30.14,ENE,76,1.0,5.0,93,0.00,,,0.00,Wunderground v.1.15,2013-07-14 07:29:00,
2013-07-14 03:35:00,68.3,66.2,30.14,North,6,1.0,5.0,93,0.00,,,0.00,Wunderground v.1.15,2013-07-14 07:35:00,
2013-07-14 03:40:00,68.2,66.4,30.14,NNW,329,1.0,5.0,94,0.00,,,0.00,Wunderground v.1.15,2013-07-14 07:40:00,
2013-07-14 03:46:00,68.1,66.3,30.14,SE,129,1.0,5.0,94,0.00,,,0.00,Wunderground v.1.15,2013-07-14 07:46:00,
2013-07-14 03:52:00,67.9,66.1,30.14,East,85,0.0,5.0,94,0.00,,,0.00,Wunderground v.1.15,2013-07-14 07:52:00,
2013-07-14 03:58:00,67.9,66.4,30.14,NE,53,0.0,5.0,95,0.00,,,0.00,Wunderground v.1.15,2013-07-14 07:58:00,
2013-07-14 04:04:00,67.8,66.3,30.14,NE,53,0.0,5.0,95,0.00,,,0.00,Wunderground v.1.15,2013-07-14 08:04:00,
2013-07-14 04:10:00,67.7,66.2,30.14,NNE,26,1.0,5.0,95,0.00,,,0.00,Wunderground v.1.15,2013-07-14 08:10:00,
2013-07-14 04:16:00,67.7,66.2,30.15,NNE,24,2.0,5.0,95,0.00,,,0.00,Wunderground v.1.15,2013-07-14 08:16:00,
2013-07-14 04:21:00,67.7,66.2,30.15,NNE,32,2.0,5.0,95,0.00,,,0.00,Wunderground v.1.15,2013-07-14 08:21:00,
2013-07-14 04:27:00,67.7,66.2,30.15,NE,51,2.0,6.0,95,0.00,,,0.00,Wunderground v.1.15,2013-07-14 08:27:00,
2013-07-14 04:33:00,67.7,66.2,30.15,NE,44,3.0,5.0,95,0.00,,,0.00,Wunderground v.1.15,2013-07-14 08:33:00,
2013-07-14 04:39:00,67.7,66.2,30.15,NE,47,3.0,5.0,95,0.00,,,0.00,Wunderground v.1.15,2013-07-14 08:39:00,
2013-07-14 04:45:00,67.7,66.2,30.15,NE,43,2.0,5.0,95,0.00,,,0.00,Wunderground v.1.15,2013-07-14 08:45:00,
2013-07-14 04:51:00,67.6,66.1,30.15,ENE,61,1.0,5.0,95,0.00,,,0.00,Wunderground v.1.15,2013-07-14 08:51:00,
2013-07-14 04:57:00,67.5,66.0,30.15,SE,136,1.0,5.0,95,0.00,,,0.00,Wunderground v.1.15,2013-07-14 08:57:00,
2013-07-14 05:02:00,67.5,66.3,30.15,NE,38,1.0,5.0,96,0.00,,,0.00,Wunderground v.1.15,2013-07-14 09:02:00,
2013-07-14 05:08:00,67.5,66.3,30.15,NE,44,2.0,5.0,96,0.00,,,0.00,Wunderground v.1.15,2013-07-14 09:08:00,
2013-07-14 05:14:00,67.6,66.4,30.15,ENE,61,1.0,5.0,96,0.00,,,0.00,Wunderground v.1.15,2013-07-14 09:14:00,
2013-07-14 05:20:00,67.5,66.0,30.16,NE,48,1.0,5.0,95,0.00,,,0.00,Wunderground v.1.15,2013-07-14 09:20:00,
2013-07-14 05:26:00,67.6,66.4,30.16,NE,43,2.0,5.0,96,0.00,,,0.00,Wunderground v.1.15,2013-07-14 09:26:00,
2013-07-14 05:32:00,67.5,66.0,30.16,NE,44,2.0,4.0,95,0.00,,,0.00,Wunderground v.1.15,2013-07-14 09:32:00,
2013-07-14 05:38:00,67.4,66.2,30.16,NE,40,2.0,5.0,96,0.00,,,0.00,Wunderground v.1.15,2013-07-14 09:38:00,
2013-07-14 05:43:00,67.3,66.1,30.16,NE,44,1.0,3.0,96,0.00,,,0.00,Wunderground v.1.15,2013-07-14 09:43:00,
2013-07-14 05:49:00,67.2,66.0,30.16,NE,44,1.0,5.0,96,0.00,,,0.00,Wunderground v.1.15,2013-07-14 09:49:00,
2013-07-14 05:55:00,67.1,65.9,30.16,North,11,2.0,5.0,96,0.00,,,0.00,Wunderground v.1.15,2013-07-14 09:55:00,
2013-07-14 06:01:00,67.1,65.9,30.16,NE,41,3.0,3.0,96,0.00,,,0.00,Wunderground v.1.15,2013-07-14 10:01:00,
2013-07-14 06:07:00,67.0,65.8,30.16,NE,47,2.0,5.0,96,0.00,,,0.00,Wunderground v.1.15,2013-07-14 10:07:00,
2013-07-14 06:13:00,66.9,65.7,30.16,NNE,21,2.0,5.0,96,0.00,,,0.00,Wunderground v.1.15,2013-07-14 10:13:00,
2013-07-14 06:19:00,66.7,65.5,30.16,NE,52,1.0,5.0,96,0.00,,,0.00,Wunderground v.1.15,2013-07-14 10:19:00,
2013-07-14 06:24:00,66.7,65.5,30.17,NE,41,1.0,5.0,96,0.00,,,0.00,Wunderground v.1.15,2013-07-14 10:24:00,
2013-07-14 06:30:00,66.8,65.6,30.17,NE,44,2.0,5.0,96,0.00,,,0.00,Wunderground v.1.15,2013-07-14 10:30:00,
2013-07-14 06:36:00,67.0,65.8,30.17,NE,34,3.0,5.0,96,0.00,,,0.00,Wunderground v.1.15,2013-07-14 10:36:00,
2013-07-14 06:42:00,67.0,65.8,30.17,NNE,12,3.0,5.0,96,0.00,,,0.00,Wunderground v.1.15,2013-07-14 10:42:00,
2013-07-14 06:48:00,67.1,65.9,30.17,North,6,2.0,5.0,96,0.00,,,0.00,Wunderground v.1.15,2013-07-14 10:48:00,
2013-07-14 06:54:00,67.5,66.0,30.17,NE,49,1.0,5.0,95,0.00,,,0.00,Wunderground v.1.15,2013-07-14 10:54:00,
2013-07-14 07:01:00,67.7,66.2,30.17,NE,45,2.0,5.0,95,0.00,,,0.00,Wunderground v.1.15,2013-07-14 11:01:00,
2013-07-14 07:07:00,68.0,66.2,30.17,NE,51,3.0,5.0,94,0.00,,,0.00,Wunderground v.1.15,2013-07-14 11:07:00,
2013-07-14 07:12:00,68.1,66.3,30.17,NNW,330,3.0,5.0,94,0.00,,,0.00,Wunderground v.1.15,2013-07-14 11:12:00,
2013-07-14 07:18:00,68.4,66.3,30.17,SW,235,3.0,6.0,93,0.00,,,0.00,Wunderground v.1.15,2013-07-14 11:18:00,
2013-07-14 07:24:00,68.4,66.3,30.18,ENE,57,3.0,5.0,93,0.00,,,0.00,Wunderground v.1.15,2013-07-14 11:24:00,
2013-07-14 07:30:00,68.2,66.1,30.18,NNE,18,3.0,7.0,93,0.00,,,0.00,Wunderground v.1.15,2013-07-14 11:30:00,
2013-07-14 07:36:00,68.2,66.4,30.18,NE,49,3.0,5.0,94,0.00,,,0.00,Wunderground v.1.15,2013-07-14 11:36:00,
2013-07-14 07:42:00,68.3,66.5,30.18,North,3,3.0,5.0,94,0.00,,,0.00,Wunderground v.1.15,2013-07-14 11:42:00,
2013-07-14 07:47:00,68.4,66.6,30.18,ENE,57,3.0,8.0,94,0.00,,,0.00,Wunderground v.1.15,2013-07-14 11:47:00,
2013-07-14 07:53:00,68.5,66.4,30.18,WNW,294,4.0,7.0,93,0.00,,,0.00,Wunderground v.1.15,2013-07-14 11:53:00,
2013-07-14 07:59:00,68.6,66.5,30.18,SSE,148,3.0,7.0,93,0.00,,,0.00,Wunderground v.1.15,2013-07-14 11:59:00,
2013-07-14 08:05:00,68.8,66.7,30.18,NNE,25,3.0,7.0,93,0.00,,,0.00,Wunderground v.1.15,2013-07-14 12:05:00,
2013-07-14 08:11:00,69.0,66.9,30.18,NNE,23,3.0,6.0,93,0.00,,,0.00,Wunderground v.1.15,2013-07-14 12:11:00,
2013-07-14 08:17:00,69.3,67.2,30.18,NE,53,3.0,6.0,93,0.00,,,0.00,Wunderground v.1.15,2013-07-14 12:17:00,
2013-07-14 08:23:00,69.7,67.3,30.18,NE,48,3.0,9.0,92,0.00,,,0.00,Wunderground v.1.15,2013-07-14 12:23:00,
2013-07-14 08:28:00,69.9,67.2,30.18,NE,49,4.0,9.0,91,0.00,,,0.00,Wunderground v.1.15,2013-07-14 12:28:00,
2013-07-14 08:34:00,70.1,67.3,30.19,ENE,61,4.0,5.0,91,0.00,,,0.00,Wunderground v.1.15,2013-07-14 12:34:00,
2013-07-14 08:40:00,70.4,67.3,30.18,NNW,330,4.0,6.0,90,0.00,,,0.00,Wunderground v.1.15,2013-07-14 12:40:00,
2013-07-14 08:46:00,70.7,67.6,30.19,NE,37,3.0,5.0,90,0.00,,,0.00,Wunderground v.1.15,2013-07-14 12:46:00,
2013-07-14 08:52:00,71.0,67.9,30.19,East,82,3.0,5.0,90,0.00,,,0.00,Wunderground v.1.15,2013-07-14 12:52:00,
2013-07-14 08:58:00,71.4,68.0,30.19,South,186,3.0,5.0,89,0.00,,,0.00,Wunderground v.1.15,2013-07-14 12:58:00,
2013-07-14 09:04:00,72.1,68.3,30.19,NE,46,3.0,8.0,88,0.00,,,0.00,Wunderground v.1.15,2013-07-14 13:04:00,
2013-07-14 09:09:00,72.7,68.6,30.19,NNW,335,4.0,8.0,87,0.00,,,0.00,Wunderground v.1.15,2013-07-14 13:09:00,
2013-07-14 09:15:00,73.5,69.1,30.19,NNW,342,4.0,5.0,86,0.00,,,0.00,Wunderground v.1.15,2013-07-14 13:15:00,
2013-07-14 09:21:00,74.2,69.4,30.19,ENE,63,3.0,5.0,85,0.00,,,0.00,Wunderground v.1.15,2013-07-14 13:21:00,
2013-07-14 09:27:00,74.9,69.7,30.19,NE,40,3.0,7.0,84,0.00,,,0.00,Wunderground v.1.15,2013-07-14 13:27:00,
2013-07-14 09:33:00,75.0,69.5,30.19,North,10,3.0,5.0,83,0.00,,,0.00,Wunderground v.1.15,2013-07-14 13:33:00,
2013-07-14 09:39:00,75.8,69.9,30.19,ESE,102,3.0,7.0,82,0.00,,,0.00,Wunderground v.1.15,2013-07-14 13:39:00,
2013-07-14 09:45:00,75.7,69.8,30.19,North,6,4.0,6.0,82,0.00,,,0.00,Wunderground v.1.15,2013-07-14 13:45:00,
2013-07-14 09:51:00,76.2,70.3,30.19,North,359,4.0,5.0,82,0.00,,,0.00,Wunderground v.1.15,2013-07-14 13:51:00,
2013-07-14 09:56:00,76.8,70.5,30.19,NE,34,3.0,7.0,81,0.00,,,0.00,Wunderground v.1.15,2013-07-14 13:56:00,
2013-07-14 10:01:00,76.8,70.2,30.19,West,271,4.0,4.0,80,0.00,,,0.00,Wunderground v.1.15,2013-07-14 14:01:00,
2013-07-14 10:07:00,76.9,70.6,30.19,West,262,3.0,6.0,81,0.00,,,0.00,Wunderground v.1.15,2013-07-14 14:07:00,
2013-07-14 10:13:00,77.4,71.1,30.19,NW,306,3.0,5.0,81,0.00,,,0.00,Wunderground v.1.15,2013-07-14 14:13:00,
2013-07-14 10:19:00,78.5,71.1,30.19,NE,41,3.0,5.0,78,0.00,,,0.00,Wunderground v.1.15,2013-07-14 14:19:00,
2013-07-14 10:25:00,78.8,70.6,30.19,SE,124,3.0,5.0,76,0.00,,,0.00,Wunderground v.1.15,2013-07-14 14:25:00,
2013-07-14 10:30:00,79.1,71.6,30.19,ENE,71,3.0,5.0,78,0.00,,,0.00,Wunderground v.1.15,2013-07-14 14:30:00,
2013-07-14 10:36:00,79.5,70.5,30.19,SE,131,3.0,6.0,74,0.00,,,0.00,Wunderground v.1.15,2013-07-14 14:36:00,
2013-07-14 10:42:00,79.5,70.9,30.19,SE,143,3.0,5.0,75,0.00,,,0.00,Wunderground v.1.15,2013-07-14 14:42:00,
2013-07-14 10:48:00,80.5,72.2,30.19,NE,43,2.0,5.0,76,0.00,,,0.00,Wunderground v.1.15,2013-07-14 14:48:00,
2013-07-14 10:54:00,81.1,71.2,30.19,ESE,114,2.0,5.0,72,0.00,,,0.00,Wunderground v.1.15,2013-07-14 14:54:00,
2013-07-14 11:01:00,81.3,72.2,30.19,SSE,150,2.0,5.0,74,0.00,,,0.00,Wunderground v.1.15,2013-07-14 15:01:00,
2013-07-14 11:07:00,81.6,71.7,30.19,NE,37,2.0,5.0,72,0.00,,,0.00,Wunderground v.1.15,2013-07-14 15:07:00,
2013-07-14 11:13:00,81.5,71.6,30.19,SSW,204,2.0,5.0,72,0.00,,,0.00,Wunderground v.1.15,2013-07-14 15:13:00,
2013-07-14 11:18:00,81.6,72.1,30.19,NE,49,2.0,5.0,73,0.00,,,0.00,Wunderground v.1.15,2013-07-14 15:18:00,
2013-07-14 11:24:00,81.8,71.9,30.19,ESE,107,3.0,5.0,72,0.00,,,0.00,Wunderground v.1.15,2013-07-14 15:24:00,
2013-07-14 11:30:00,82.7,72.3,30.19,NE,51,3.0,6.0,71,0.00,,,0.00,Wunderground v.1.15,2013-07-14 15:30:00,
2013-07-14 11:36:00,82.7,71.9,30.19,SE,136,2.0,5.0,70,0.00,,,0.00,Wunderground v.1.15,2013-07-14 15:36:00,
2013-07-14 11:42:00,83.5,71.4,30.19,SE,143,2.0,5.0,67,0.00,,,0.00,Wunderground v.1.15,2013-07-14 15:42:00,
2013-07-14 11:48:00,83.7,72.0,30.19,SE,125,2.0,5.0,68,0.00,,,0.00,Wunderground v.1.15,2013-07-14 15:48:00,
2013-07-14 11:54:00,83.6,71.9,30.19,NNE,28,3.0,6.0,68,0.00,,,0.00,Wunderground v.1.15,2013-07-14 15:54:00,
2013-07-14 12:01:00,82.2,72.3,30.19,ENE,70,4.0,4.0,72,0.00,,,0.00,Wunderground v.1.15,2013-07-14 16:01:00,
2013-07-14 12:07:00,82.1,71.8,30.19,NNE,18,4.0,8.0,71,0.00,,,0.00,Wunderground v.1.15,2013-07-14 16:07:00,
2013-07-14 12:12:00,81.5,72.0,30.19,NNE,30,5.0,5.0,73,0.00,,,0.00,Wunderground v.1.15,2013-07-14 16:12:00,
2013-07-14 12:18:00,82.3,71.5,30.19,NE,41,4.0,6.0,70,0.00,,,0.00,Wunderground v.1.15,2013-07-14 16:18:00,
2013-07-14 12:24:00,82.6,72.7,30.19,NE,55,3.0,5.0,72,0.00,,,0.00,Wunderground v.1.15,2013-07-14 16:24:00,
2013-07-14 12:30:00,82.8,72.0,30.19,NE,47,3.0,8.0,70,0.00,,,0.00,Wunderground v.1.15,2013-07-14 16:30:00,
2013-07-14 12:36:00,83.2,71.5,30.19,NE,37,3.0,5.0,68,0.00,,,0.00,Wunderground v.1.15,2013-07-14 16:36:00,
2013-07-14 12:42:00,83.5,72.3,30.19,North,11,4.0,5.0,69,0.00,,,0.00,Wunderground v.1.15,2013-07-14 16:42:00,
2013-07-14 12:47:00,83.3,72.1,30.19,NE,34,4.0,6.0,69,0.00,,,0.00,Wunderground v.1.15,2013-07-14 16:47:00,
2013-07-14 12:53:00,84.0,71.9,30.19,NE,40,3.0,5.0,67,0.00,,,0.00,Wunderground v.1.15,2013-07-14 16:53:00,
2013-07-14 12:59:00,83.3,72.1,30.18,NE,51,4.0,6.0,69,0.00,,,0.00,Wunderground v.1.15,2013-07-14 16:59:00,
2013-07-14 13:05:00,83.0,72.2,30.19,NE,34,5.0,7.0,70,0.00,,,0.00,Wunderground v.1.15,2013-07-14 17:05:00,
2013-07-14 13:11:00,83.0,72.2,30.18,NE,46,6.0,7.0,70,0.00,,,0.00,Wunderground v.1.15,2013-07-14 17:11:00,
2013-07-14 13:17:00,82.5,72.6,30.18,NNE,27,6.0,10.0,72,0.00,,,0.00,Wunderground v.1.15,2013-07-14 17:17:00,
2013-07-14 13:23:00,83.1,73.1,30.18,NE,37,4.0,5.0,72,0.00,,,0.00,Wunderground v.1.15,2013-07-14 17:23:00,
2013-07-14 13:28:00,83.5,72.7,30.18,NE,35,3.0,5.0,70,0.00,,,0.00,Wunderground v.1.15,2013-07-14 17:28:00,
2013-07-14 13:34:00,83.4,72.6,30.18,NE,47,3.0,5.0,70,0.00,,,0.00,Wunderground v.1.15,2013-07-14 17:34:00,
2013-07-14 13:40:00,83.9,73.1,30.18,North,1,4.0,6.0,70,0.00,,,0.00,Wunderground v.1.15,2013-07-14 17:40:00,
2013-07-14 13:46:00,83.9,72.6,30.18,WSW,238,5.0,11.0,69,0.00,,,0.00,Wunderground v.1.15,2013-07-14 17:46:00,
2013-07-14 13:52:00,84.2,72.9,30.18,West,281,5.0,9.0,69,0.00,,,0.00,Wunderground v.1.15,2013-07-14 17:52:00,
2013-07-14 13:58:00,84.4,72.7,30.18,NE,46,5.0,9.0,68,0.00,,,0.00,Wunderground v.1.15,2013-07-14 17:58:00,
2013-07-14 14:04:00,84.8,73.1,30.18,ESE,109,4.0,5.0,68,0.00,,,0.00,Wunderground v.1.15,2013-07-14 18:04:00,
2013-07-14 14:09:00,86.2,72.6,30.18,SE,139,4.0,5.0,64,0.00,,,0.00,Wunderground v.1.15,2013-07-14 18:09:00,
2013-07-14 14:15:00,85.8,72.7,30.18,NE,35,4.0,6.0,65,0.00,,,0.00,Wunderground v.1.15,2013-07-14 18:15:00,
2013-07-14 14:21:00,85.5,72.4,30.18,NE,41,3.0,6.0,65,0.00,,,0.00,Wunderground v.1.15,2013-07-14 18:21:00,
2013-07-14 14:27:00,85.2,73.0,30.18,NNE,27,3.0,6.0,67,0.00,,,0.00,Wunderground v.1.15,2013-07-14 18:27:00,
2013-07-14 14:33:00,85.1,72.9,30.18,North,4,3.0,5.0,67,0.00,,,0.00,Wunderground v.1.15,2013-07-14 18:33:00,
2013-07-14 14:39:00,84.8,72.2,30.18,NE,44,4.0,5.0,66,0.00,,,0.00,Wunderground v.1.15,2013-07-14 18:39:00,
2013-07-14 14:45:00,85.3,74.0,30.18,SE,129,2.0,5.0,69,0.00,,,0.00,Wunderground v.1.15,2013-07-14 18:45:00,
2013-07-14 14:50:00,86.7,73.5,30.18,SSE,147,1.0,5.0,65,0.00,,,0.00,Wunderground v.1.15,2013-07-14 18:50:00,
2013-07-14 14:56:00,85.9,72.3,30.18,East,95,4.0,9.0,64,0.00,,,0.00,Wunderground v.1.15,2013-07-14 18:56:00,
2013-07-14 15:01:00,85.9,72.8,30.17,NNE,18,4.0,4.0,65,0.00,,,0.00,Wunderground v.1.15,2013-07-14 19:01:00,
2013-07-14 15:07:00,86.7,73.1,30.17,SE,127,2.0,5.0,64,0.00,,,0.00,Wunderground v.1.15,2013-07-14 19:07:00,
2013-07-14 15:13:00,87.6,73.9,30.17,ENE,65,2.0,5.0,64,0.00,,,0.00,Wunderground v.1.15,2013-07-14 19:13:00,
2013-07-14 15:19:00,86.4,72.8,30.17,NE,51,3.0,5.0,64,0.00,,,0.00,Wunderground v.1.15,2013-07-14 19:19:00,
2013-07-14 15:25:00,85.9,74.1,30.17,NNW,345,3.0,5.0,68,0.00,,,0.00,Wunderground v.1.15,2013-07-14 19:25:00,
2013-07-14 15:30:00,85.9,74.5,30.17,NNE,20,4.0,5.0,69,0.00,,,0.00,Wunderground v.1.15,2013-07-14 19:30:00,
2013-07-14 15:36:00,85.7,73.0,30.17,SSE,156,5.0,8.0,66,0.00,,,0.00,Wunderground v.1.15,2013-07-14 19:36:00,
2013-07-14 15:42:00,86.0,73.3,30.17,ESE,112,3.0,5.0,66,0.00,,,0.00,Wunderground v.1.15,2013-07-14 19:42:00,
2013-07-14 15:48:00,86.6,73.0,30.17,NE,51,2.0,5.0,64,0.00,,,0.00,Wunderground v.1.15,2013-07-14 19:48:00,
2013-07-14 15:54:00,86.6,73.4,30.17,SSE,166,3.0,5.0,65,0.00,,,0.00,Wunderground v.1.15,2013-07-14 19:54:00,
2013-07-14 16:01:00,87.9,73.7,30.17,NW,321,3.0,3.0,63,0.00,,,0.00,Wunderground v.1.15,2013-07-14 20:01:00,
2013-07-14 16:07:00,87.3,74.1,30.17,North,350,3.0,5.0,65,0.00,,,0.00,Wunderground v.1.15,2013-07-14 20:07:00,
2013-07-14 16:13:00,86.1,73.4,30.17,NE,43,3.0,5.0,66,0.00,,,0.00,Wunderground v.1.15,2013-07-14 20:13:00,
2013-07-14 16:18:00,86.7,74.9,30.17,SSE,150,3.0,5.0,68,0.00,,,0.00,Wunderground v.1.15,2013-07-14 20:18:00,
2013-07-14 16:24:00,86.7,73.1,30.17,NE,49,3.0,7.0,64,0.00,,,0.00,Wunderground v.1.15,2013-07-14 20:24:00,
2013-07-14 16:30:00,86.5,73.3,30.17,NE,40,3.0,7.0,65,0.00,,,0.00,Wunderground v.1.15,2013-07-14 20:30:00,
2013-07-14 16:36:00,86.9,73.7,30.17,NE,50,2.0,5.0,65,0.00,,,0.00,Wunderground v.1.15,2013-07-14 20:36:00,
2013-07-14 16:42:00,87.6,74.8,30.16,East,86,3.0,5.0,66,0.00,,,0.00,Wunderground v.1.15,2013-07-14 20:42:00,
2013-07-14 16:48:00,87.9,73.3,30.17,SE,129,3.0,5.0,62,0.00,,,0.00,Wunderground v.1.15,2013-07-14 20:48:00,
2013-07-14 16:53:00,87.4,74.2,30.16,ESE,113,2.0,5.0,65,0.00,,,0.00,Wunderground v.1.15,2013-07-14 20:53:00,
2013-07-14 16:59:00,88.0,74.8,30.16,East,99,2.0,5.0,65,0.00,,,0.00,Wunderground v.1.15,2013-07-14 20:59:00,
2013-07-14 17:05:00,89.2,75.0,30.16,SSW,195,1.0,5.0,63,0.00,,,0.00,Wunderground v.1.15,2013-07-14 21:05:00,
2013-07-14 17:11:00,90.3,74.5,30.17,East,100,1.0,5.0,60,0.00,,,0.00,Wunderground v.1.15,2013-07-14 21:11:00,
2013-07-14 17:17:00,88.4,74.2,30.17,West,280,3.0,6.0,63,0.00,,,0.00,Wunderground v.1.15,2013-07-14 21:17:00,
2013-07-14 17:23:00,88.4,73.7,30.17,SE,124,3.0,5.0,62,0.00,,,0.00,Wunderground v.1.15,2013-07-14 21:23:00,
2013-07-14 17:28:00,88.5,74.3,30.16,NNE,25,3.0,5.0,63,0.00,,,0.00,Wunderground v.1.15,2013-07-14 21:28:00,
2013-07-14 17:34:00,87.8,74.6,30.16,North,356,3.0,6.0,65,0.00,,,0.00,Wunderground v.1.15,2013-07-14 21:34:00,
2013-07-14 17:40:00,87.5,74.3,30.16,NE,49,4.0,8.0,65,0.00,,,0.00,Wunderground v.1.15,2013-07-14 21:40:00,
2013-07-14 17:46:00,86.7,73.5,30.16,NE,45,4.0,7.0,65,0.00,,,0.00,Wunderground v.1.15,2013-07-14 21:46:00,
2013-07-14 17:52:00,86.8,74.5,30.16,NE,45,4.0,7.0,67,0.00,,,0.00,Wunderground v.1.15,2013-07-14 21:52:00,
2013-07-14 17:58:00,86.1,73.4,30.16,NE,43,4.0,7.0,66,0.00,,,0.00,Wunderground v.1.15,2013-07-14 21:58:00,
2013-07-14 18:04:00,85.5,73.7,30.16,ENE,57,4.0,5.0,68,0.00,,,0.00,Wunderground v.1.15,2013-07-14 22:04:00,
2013-07-14 18:09:00,84.8,74.3,30.16,NE,41,4.0,5.0,71,0.00,,,0.00,Wunderground v.1.15,2013-07-14 22:09:00,
2013-07-14 18:15:00,84.1,74.1,30.16,ENE,60,3.0,5.0,72,0.00,,,0.00,Wunderground v.1.15,2013-07-14 22:15:00,
2013-07-14 18:21:00,83.8,74.6,30.16,NE,53,2.0,5.0,74,0.00,,,0.00,Wunderground v.1.15,2013-07-14 22:21:00,
2013-07-14 18:27:00,84.5,74.9,30.16,NNE,27,2.0,5.0,73,0.00,,,0.00,Wunderground v.1.15,2013-07-14 22:27:00,
2013-07-14 18:33:00,85.2,74.7,30.16,NE,51,3.0,5.0,71,0.00,,,0.00,Wunderground v.1.15,2013-07-14 22:33:00,
2013-07-14 18:39:00,85.9,75.4,30.16,NE,44,3.0,5.0,71,0.00,,,0.00,Wunderground v.1.15,2013-07-14 22:39:00,
2013-07-14 18:45:00,85.7,75.2,30.15,WNW,290,3.0,5.0,71,0.00,,,0.00,Wunderground v.1.15,2013-07-14 22:45:00,
2013-07-14 18:51:00,86.7,75.7,30.16,NW,304,3.0,3.0,70,0.00,,,0.00,Wunderground v.1.15,2013-07-14 22:51:00,
2013-07-14 18:57:00,86.6,75.2,30.16,NNE,25,2.0,5.0,69,0.00,,,0.00,Wunderground v.1.15,2013-07-14 22:57:00,
2013-07-14 19:02:00,86.1,75.2,30.16,NE,56,3.0,5.0,70,0.00,,,0.00,Wunderground v.1.15,2013-07-14 23:02:00,
2013-07-14 19:08:00,86.0,75.9,30.16,NNE,30,3.0,5.0,72,0.00,,,0.00,Wunderground v.1.15,2013-07-14 23:08:00,
2013-07-14 19:14:00,85.7,75.2,30.16,NNW,335,3.0,5.0,71,0.00,,,0.00,Wunderground v.1.15,2013-07-14 23:14:00,
2013-07-14 19:20:00,85.2,75.1,30.16,North,11,3.0,5.0,72,0.00,,,0.00,Wunderground v.1.15,2013-07-14 23:20:00,
2013-07-14 19:26:00,85.1,75.5,30.16,NNE,16,2.0,5.0,73,0.00,,,0.00,Wunderground v.1.15,2013-07-14 23:26:00,
2013-07-14 19:32:00,85.6,75.5,30.16,NNE,18,2.0,5.0,72,0.00,,,0.00,Wunderground v.1.15,2013-07-14 23:32:00,
2013-07-14 19:38:00,85.8,75.7,30.16,NE,44,2.0,5.0,72,0.00,,,0.00,Wunderground v.1.15,2013-07-14 23:38:00,
2013-07-14 19:43:00,85.9,75.4,30.16,NE,40,2.0,5.0,71,0.00,,,0.00,Wunderground v.1.15,2013-07-14 23:43:00,
2013-07-14 19:49:00,85.7,74.8,30.16,NE,50,3.0,5.0,70,0.00,,,0.00,Wunderground v.1.15,2013-07-14 23:49:00,
2013-07-14 19:55:00,85.7,74.8,30.16,North,356,3.0,5.0,70,0.00,,,0.00,Wunderground v.1.15,2013-07-14 23:55:00,
2013-07-14 20:01:00,85.9,74.5,30.16,NE,41,2.0,5.0,69,0.00,,,0.00,Wunderground v.1.15,2013-07-15 00:01:00,
2013-07-14 20:07:00,85.5,74.6,30.16,NE,45,3.0,5.0,70,0.00,,,0.00,Wunderground v.1.15,2013-07-15 00:07:00,
2013-07-14 20:13:00,85.4,74.5,30.16,NE,37,2.0,5.0,70,0.00,,,0.00,Wunderground v.1.15,2013-07-15 00:13:00,
2013-07-14 20:19:00,85.4,74.9,30.16,NE,46,2.0,5.0,71,0.00,,,0.00,Wunderground v.1.15,2013-07-15 00:19:00,
2013-07-14 20:24:00,85.4,74.9,30.17,NE,41,1.0,5.0,71,0.00,,,0.00,Wunderground v.1.15,2013-07-15 00:24:00,
2013-07-14 20:30:00,85.0,75.0,30.17,NE,45,2.0,5.0,72,0.00,,,0.00,Wunderground v.1.15,2013-07-15 00:30:00,
2013-07-14 20:36:00,84.9,74.9,30.17,NE,46,1.0,5.0,72,0.00,,,0.00,Wunderground v.1.15,2013-07-15 00:36:00,
2013-07-14 20:42:00,84.1,74.9,30.17,North,6,1.0,5.0,74,0.00,,,0.00,Wunderground v.1.15,2013-07-15 00:42:00,
2013-07-14 20:48:00,83.4,75.0,30.17,NNE,16,1.0,5.0,76,0.00,,,0.00,Wunderground v.1.15,2013-07-15 00:48:00,
2013-07-14 20:54:00,82.8,74.8,30.17,NNE,18,1.0,5.0,77,0.00,,,0.00,Wunderground v.1.15,2013-07-15 00:54:00,
2013-07-14 21:01:00,82.0,74.8,30.17,NE,45,2.0,2.0,79,0.00,,,0.00,Wunderground v.1.15,2013-07-15 01:01:00,
2013-07-14 21:07:00,81.5,75.1,30.17,NE,45,1.0,5.0,81,0.00,,,0.00,Wunderground v.1.15,2013-07-15 01:07:00,
2013-07-14 21:13:00,80.7,74.7,30.17,NE,45,0.0,5.0,82,0.00,,,0.00,Wunderground v.1.15,2013-07-15 01:13:00,
2013-07-14 21:18:00,80.2,74.6,30.17,NE,45,0.0,5.0,83,0.00,,,0.00,Wunderground v.1.15,2013-07-15 01:18:00,
2013-07-14 21:24:00,79.7,74.4,30.17,NE,45,0.0,5.0,84,0.00,,,0.00,Wunderground v.1.15,2013-07-15 01:24:00,
2013-07-14 21:30:00,79.4,74.1,30.17,NE,46,0.0,5.0,84,0.00,,,0.00,Wunderground v.1.15,2013-07-15 01:30:00,
2013-07-14 21:36:00,79.2,74.3,30.18,NE,46,0.0,5.0,85,0.00,,,0.00,Wunderground v.1.15,2013-07-15 01:36:00,
2013-07-14 21:42:00,78.9,74.0,30.18,NE,46,0.0,5.0,85,0.00,,,0.00,Wunderground v.1.15,2013-07-15 01:42:00,
2013-07-14 21:48:00,78.6,74.1,30.18,NE,45,0.0,5.0,86,0.00,,,0.00,Wunderground v.1.15,2013-07-15 01:48:00,
2013-07-14 21:54:00,78.2,74.0,30.18,NE,45,0.0,5.0,87,0.00,,,0.00,Wunderground v.1.15,2013-07-15 01:54:00,
2013-07-14 22:01:00,77.8,74.0,30.19,ESE,108,0.0,5.0,88,0.00,,,0.00,Wunderground v.1.15,2013-07-15 02:01:00,
2013-07-14 22:07:00,77.4,73.6,30.18,ESE,108,0.0,5.0,88,0.00,,,0.00,Wunderground v.1.15,2013-07-15 02:07:00,
2013-07-14 22:13:00,77.6,73.8,30.19,NE,50,0.0,5.0,88,0.00,,,0.00,Wunderground v.1.15,2013-07-15 02:13:00,
2013-07-14 22:18:00,77.7,73.5,30.19,NE,48,0.0,5.0,87,0.00,,,0.00,Wunderground v.1.15,2013-07-15 02:18:00,
2013-07-14 22:24:00,77.6,73.4,30.19,NE,48,0.0,5.0,87,0.00,,,0.00,Wunderground v.1.15,2013-07-15 02:24:00,
2013-07-14 22:30:00,77.4,73.9,30.19,North,9,1.0,5.0,89,0.00,,,0.00,Wunderground v.1.15,2013-07-15 02:30:00,
2013-07-14 22:36:00,77.1,73.3,30.19,NNE,20,2.0,5.0,88,0.00,,,0.00,Wunderground v.1.15,2013-07-15 02:36:00,
2013-07-14 22:42:00,77.2,73.4,30.19,NNE,32,2.0,5.0,88,0.00,,,0.00,Wunderground v.1.15,2013-07-15 02:42:00,
2013-07-14 22:48:00,77.7,73.5,30.19,NE,51,2.0,5.0,87,0.00,,,0.00,Wunderground v.1.15,2013-07-15 02:48:00,
2013-07-14 22:54:00,78.0,73.5,30.20,North,10,2.0,5.0,86,0.00,,,0.00,Wunderground v.1.15,2013-07-15 02:54:00,
2013-07-14 22:59:00,78.0,73.5,30.19,ENE,77,1.0,5.0,86,0.00,,,0.00,Wunderground v.1.15,2013-07-15 02:59:00,
2013-07-14 23:05:00,77.9,73.4,30.19,NE,48,1.0,5.0,86,0.00,,,0.00,Wunderground v.1.15,2013-07-15 03:05:00,
2013-07-14 23:11:00,77.8,73.6,30.19,NE,50,2.0,5.0,87,0.00,,,0.00,Wunderground v.1.15,2013-07-15 03:11:00,
2013-07-14 23:17:00,77.5,73.3,30.19,NE,41,1.0,5.0,87,0.00,,,0.00,Wunderground v.1.15,2013-07-15 03:17:00,
2013-07-14 23:23:00,77.2,73.4,30.19,NE,53,2.0,5.0,88,0.00,,,0.00,Wunderground v.1.15,2013-07-15 03:23:00,
2013-07-14 23:29:00,77.2,73.4,30.19,ENE,63,2.0,5.0,88,0.00,,,0.00,Wunderground v.1.15,2013-07-15 03:29:00,
2013-07-14 23:35:00,77.2,73.4,30.19,NE,43,2.0,5.0,88,0.00,,,0.00,Wunderground v.1.15,2013-07-15 03:35:00,
2013-07-14 23:40:00,77.1,73.3,30.20,NNW,348,1.0,5.0,88,0.00,,,0.00,Wunderground v.1.15,2013-07-15 03:40:00,
2013-07-14 23:46:00,76.9,73.1,30.19,East,94,1.0,5.0,88,0.00,,,0.00,Wunderground v.1.15,2013-07-15 03:46:00,
2013-07-14 23:52:00,76.7,73.2,30.19,NE,53,0.0,5.0,89,0.00,,,0.00,Wunderground v.1.15,2013-07-15 03:52:00,
2013-07-14 23:58:00,76.5,73.0,30.20,ESE,120,0.0,5.0,89,0.00,,,0.00,Wunderground v.1.15,2013-07-15 03:58:00,